Voltar ao catálogo

SL-16 DEB

AtivoLEO
NORAD 22445·DEBRIS·🇷🇺 Russia

Lançado Dec 25, 1992 de Baikonur Cosmodrome

Loading…

Próximas Passagens (próximas 24 horas)

TLE

AtualizadoSource: Space-Track

Época: Sep 14, 2026, 04:28 UTC

1 22445U 92093EN  26257.18619192  .00000736  00000-0  38817-3 0  9995
2 22445  71.2878 178.6274 0073444  43.2443 317.4415 14.15632716730998

Acompanhe SL-16 DEB em tempo real com AllMySat

Download on the App Store